Location: St. Louis
(38.6270°N, 90.1994°W)
Time: 18:24:55
(UTC-06:00)

Tiros 1 - Pass Details

Date: 07 December 2021
Orbit: 629 x 664 km, 48.4° (Epoch: 26 January)

Event Time Altitude Azimuth Distance (km) Brightness Sun altitude
Rises 17:09:32 0° 241° (WSW) 2,904 13.2 -6.1°
Reaches altitude 10° 17:11:50 10° 244° (WSW) 2,002 11.5 -6.5°
Maximum altitude 17:16:26 73° 328° (NNW) 662 7.2 -7.3°
Drops below altitude 10° 17:21:06 10° 54° (NE) 2,024 9.1 -8.2°
Enters shadow 17:21:11 10° 55° (NE) 2,057 9.1 -8.2°
